• In Uzbekistan
  • List of Countries
  • For 7 days
  • Water Temperature
  • Satellite Maps
  • Weather Map
  • Weather Widgets
  • user-avatar
    Login

    Hourly Weather Conchas

    Today, 18 December, Monday

    Time Temperature Precipitation Wind Pressure Humidity
    00:00 +25°C° 0.9 mm 2 mps 716 mmHg 84%
    01:00 +24°C° 0.1 mm 2 mps 716 mmHg 86%
    02:00 +24°C° 0.1 mm 2 mps 716 mmHg 87%
    03:00 +24°C° 0.1 mm 2 mps 716 mmHg 89%
    04:00 +23°C° 0 mm 2 mps 716 mmHg 89%
    05:00 +23°C° 0 mm 1 mps 716 mmHg 90%
    06:00 +23°C° 0 mm 1 mps 716 mmHg 90%
    07:00 +25°C° 0.1 mm 2 mps 717 mmHg 83%
    08:00 +27°C° 0.1 mm 2 mps 717 mmHg 75%
    09:00 +29°C° 0.1 mm 2 mps 718 mmHg 68%
    10:00 +29°C° 0.9 mm 2 mps 718 mmHg 64%
    11:00 +30°C° 0.9 mm 2 mps 718 mmHg 61%
    12:00 +31°C° 0.9 mm 2 mps 718 mmHg 58%
    13:00 +31°C° 1.5 mm 2 mps 717 mmHg 60%
    14:00 +31°C° 1.5 mm 2 mps 717 mmHg 62%
    15:00 +30°C° 1.5 mm 2 mps 717 mmHg 65%
    16:00 +29°C° 1.4 mm 3 mps 717 mmHg 71%
    17:00 +28°C° 1.4 mm 3 mps 717 mmHg 77%
    18:00 +26°C° 1.4 mm 4 mps 717 mmHg 83%
    19:00 +26°C° 0.2 mm 4 mps 717 mmHg 85%
    20:00 +25°C° 0.2 mm 4 mps 718 mmHg 87%
    21:00 +23°C° 0.2 mm 4 mps 718 mmHg 89%
    22:00 +23°C° 0 mm 4 mps 718 mmHg 89%
    23:00 +23°C° 0 mm 4 mps 718 mmHg 89%

    Tomorrow, 19 December, Tuesday

    Time Temperature Precipitation Wind Pressure Humidity
    00:00 +23°C° 0 mm 4 mps 718 mmHg 89%
    01:00 +22°C° 0 mm 3 mps 718 mmHg 89%
    02:00 +22°C° 0 mm 3 mps 718 mmHg 90%
    03:00 +22°C° 0 mm 3 mps 718 mmHg 90%
    04:00 +22°C° 0 mm 3 mps 718 mmHg 91%
    05:00 +23°C° 0 mm 2 mps 718 mmHg 91%
    06:00 +21°C° 0 mm 2 mps 718 mmHg 92%
    07:00 +24°C° 0 mm 3 mps 719 mmHg 85%
    08:00 +26°C° 0 mm 3 mps 719 mmHg 79%
    09:00 +27°C° 0 mm 3 mps 720 mmHg 73%
    10:00 +29°C° 0 mm 3 mps 719 mmHg 67%
    11:00 +30°C° 0 mm 2 mps 719 mmHg 62%
    12:00 +31°C° 0 mm 2 mps 719 mmHg 57%
    13:00 +32°C° 0.3 mm 2 mps 718 mmHg 56%
    14:00 +32°C° 0.3 mm 2 mps 718 mmHg 55%
    15:00 +32°C° 0.3 mm 1 mps 717 mmHg 55%
    16:00 +31°C° 0.7 mm 2 mps 717 mmHg 61%
    17:00 +30°C° 0.7 mm 3 mps 716 mmHg 67%
    18:00 +28°C° 0.7 mm 3 mps 716 mmHg 74%
    19:00 +27°C° 0.7 mm 3 mps 716 mmHg 79%
    20:00 +25°C° 0.7 mm 4 mps 717 mmHg 83%
    21:00 +23°C° 0.7 mm 4 mps 717 mmHg 88%
    22:00 +22°C° 0.4 mm 4 mps 717 mmHg 89%
    23:00 +22°C° 0.4 mm 3 mps 717 mmHg 90%

    Day after tomorrow, 20 December, Wednesday

    Time Temperature Precipitation Wind Pressure Humidity
    00:00 +22°C° 0.4 mm 3 mps 717 mmHg 91%
    01:00 +21°C° 0.5 mm 3 mps 717 mmHg 92%
    02:00 +21°C° 0.5 mm 3 mps 717 mmHg 92%
    03:00 +21°C° 0.5 mm 3 mps 716 mmHg 92%
    04:00 +21°C° 0.3 mm 2 mps 716 mmHg 93%
    05:00 +21°C° 0.3 mm 2 mps 716 mmHg 93%
    06:00 +21°C° 0.3 mm 2 mps 717 mmHg 93%
    07:00 +24°C° 0.2 mm 2 mps 717 mmHg 86%
    08:00 +26°C° 0.2 mm 2 mps 717 mmHg 80%
    09:00 +27°C° 0.2 mm 2 mps 718 mmHg 74%
    10:00 +29°C° 0.4 mm 2 mps 717 mmHg 69%
    11:00 +30°C° 0.4 mm 3 mps 717 mmHg 63%
    12:00 +33°C° 0.4 mm 3 mps 717 mmHg 58%
    13:00 +33°C° 0.6 mm 3 mps 716 mmHg 58%
    14:00 +33°C° 0.6 mm 3 mps 715 mmHg 58%
    15:00 +33°C° 0.6 mm 3 mps 714 mmHg 58%
    16:00 +31°C° 1.1 mm 2 mps 714 mmHg 64%
    17:00 +30°C° 1.1 mm 2 mps 714 mmHg 69%
    18:00 +29°C° 1.1 mm 2 mps 714 mmHg 75%
    19:00 +27°C° 2 mm 2 mps 714 mmHg 78%
    20:00 +26°C° 2 mm 2 mps 715 mmHg 81%
    21:00 +25°C° 2 mm 2 mps 715 mmHg 84%
    22:00 +25°C° 2 mm 2 mps 715 mmHg 85%
    23:00 +25°C° 2 mm 1 mps 715 mmHg 86%

    21 December, Thursday

    Time Temperature Precipitation Wind Pressure Humidity
    00:00 +25°C° 2 mm 1 mps 715 mmHg 87%
    01:00 +24°C° 0.4 mm 1 mps 714 mmHg 87%
    02:00 +24°C° 0.4 mm 1 mps 714 mmHg 88%
    03:00 +24°C° 0.4 mm 1 mps 713 mmHg 88%
    04:00 +24°C° 0.2 mm 1 mps 713 mmHg 89%
    05:00 +24°C° 0.2 mm 1 mps 714 mmHg 89%
    06:00 +24°C° 0.2 mm 1 mps 714 mmHg 89%
    07:00 +24°C° 0.4 mm 1 mps 714 mmHg 88%
    08:00 +25°C° 0.4 mm 1 mps 714 mmHg 86%
    09:00 +25°C° 0.4 mm 1 mps 715 mmHg 84%
    10:00 +25°C° 1 mm 2 mps 715 mmHg 84%
    11:00 +25°C° 1 mm 2 mps 715 mmHg 83%
    12:00 +26°C° 1 mm 2 mps 715 mmHg 83%
    13:00 +25°C° 1.2 mm 1 mps 714 mmHg 84%
    14:00 +25°C° 1.2 mm 1 mps 714 mmHg 86%
    15:00 +25°C° 1.2 mm 1 mps 713 mmHg 87%
    16:00 +25°C° 0.9 mm 1 mps 713 mmHg 88%
    17:00 +24°C° 0.9 mm 1 mps 713 mmHg 90%
    18:00 +24°C° 0.9 mm 1 mps 713 mmHg 91%
    19:00 +24°C° 0.7 mm 1 mps 713 mmHg 91%
    20:00 +24°C° 0.7 mm 1 mps 714 mmHg 92%
    21:00 +23°C° 0.7 mm 1 mps 714 mmHg 93%
    22:00 +23°C° 0.7 mm 1 mps 714 mmHg 93%
    23:00 +23°C° 0.7 mm 1 mps 714 mmHg 93%

    22 December, Friday

    Time Temperature Precipitation Wind Pressure Humidity
    00:00 +23°C° 0.7 mm 1 mps 714 mmHg 94%
    01:00 +23°C° 1.8 mm 1 mps 714 mmHg 94%
    02:00 +23°C° 1.8 mm 1 mps 713 mmHg 95%
    03:00 +23°C° 1.8 mm 1 mps 713 mmHg 96%
    04:00 +23°C° 2.7 mm 1 mps 713 mmHg 96%
    05:00 +23°C° 2.7 mm 1 mps 713 mmHg 96%
    06:00 +23°C° 2.7 mm 2 mps 713 mmHg 96%
    07:00 +23°C° 3.1 mm 2 mps 714 mmHg 96%
    08:00 +23°C° 3.1 mm 2 mps 714 mmHg 96%
    09:00 +23°C° 3.1 mm 2 mps 714 mmHg 95%
    10:00 +23°C° 1.7 mm 2 mps 714 mmHg 94%
    11:00 +24°C° 1.7 mm 2 mps 714 mmHg 92%
    12:00 +24°C° 1.7 mm 3 mps 714 mmHg 91%
    13:00 +25°C° 0.6 mm 3 mps 713 mmHg 87%
    14:00 +26°C° 0.6 mm 3 mps 713 mmHg 84%
    15:00 +27°C° 0.6 mm 3 mps 712 mmHg 80%
    16:00 +27°C° 0.9 mm 3 mps 712 mmHg 82%
    17:00 +26°C° 0.9 mm 2 mps 712 mmHg 84%
    18:00 +26°C° 0.9 mm 2 mps 712 mmHg 85%
    19:00 +25°C° 1.4 mm 2 mps 713 mmHg 88%
    20:00 +24°C° 1.4 mm 2 mps 713 mmHg 90%
    21:00 +24°C° 1.4 mm 2 mps 713 mmHg 93%
    22:00 +23°C° 0.9 mm 2 mps 713 mmHg 93%
    23:00 +23°C° 0.9 mm 2 mps 713 mmHg 94%

    23 December, Saturday

    Time Temperature Precipitation Wind Pressure Humidity
    00:00 +23°C° 0.9 mm 2 mps 713 mmHg 95%
    01:00 +23°C° 1.1 mm 2 mps 713 mmHg 95%
    02:00 +23°C° 1.1 mm 2 mps 713 mmHg 95%
    03:00 +23°C° 1.1 mm 2 mps 712 mmHg 96%
    04:00 +23°C° 0.5 mm 2 mps 712 mmHg 96%
    05:00 +23°C° 0.5 mm 2 mps 713 mmHg 96%
    06:00 +23°C° 0.5 mm 2 mps 713 mmHg 96%
    07:00 +24°C° 0.1 mm 3 mps 713 mmHg 92%
    08:00 +25°C° 0.1 mm 3 mps 714 mmHg 87%
    09:00 +27°C° 0.1 mm 4 mps 714 mmHg 82%
    10:00 +27°C° 1.7 mm 4 mps 714 mmHg 80%
    11:00 +28°C° 1.7 mm 4 mps 713 mmHg 78%
    12:00 +29°C° 1.7 mm 4 mps 713 mmHg 76%
    13:00 +29°C° 2.1 mm 4 mps 712 mmHg 76%
    14:00 +29°C° 2.1 mm 4 mps 712 mmHg 76%
    15:00 +29°C° 2.1 mm 4 mps 711 mmHg 76%
    16:00 +29°C° 2.2 mm 4 mps 711 mmHg 80%
    17:00 +28°C° 2.2 mm 3 mps 711 mmHg 83%
    18:00 +27°C° 2.2 mm 3 mps 711 mmHg 86%
    19:00 +26°C° 2.6 mm 3 mps 711 mmHg 88%
    20:00 +25°C° 2.6 mm 3 mps 712 mmHg 90%
    21:00 +25°C° 2.6 mm 3 mps 712 mmHg 92%
    22:00 +24°C° 0.3 mm 3 mps 712 mmHg 93%
    23:00 +24°C° 0.3 mm 3 mps 712 mmHg 94%
    Show more

    XHprof extension not loaded